Volver al catálogo

FENGYUN 1C DEB

ActivoSSO
NORAD 30417·DEBRIS·🇨🇳 China

Lanzado May 10, 1999 desde Taiyuan Satellite Launch Center

Loading…

Próximos Pases (próximas 24 horas)

TLE

ActualizadoSource: Space-Track

Época: Sep 14, 2026, 10:43 UTC

1 30417U 99025AEG 26257.44694326  .00000299  00000-0  17349-3 0  9997
2 30417  98.7150 245.6474 0064682  53.3711  98.2891 14.14934407 12811

Sigue FENGYUN 1C DEB en tiempo real con AllMySat

Download on the App Store